Погода в Даммаме

Саудовская Аравия     26°21′16″N   49°58′35″E
темп.,
°C
ветер,
м/с
пор.,
м/с
влажн.,
%
обл.,
%
осадки,
мм/ч
давл.,
гПа
погр.,
м
12 августа, пт
пт1200:00+36ссз33274 0.0 99515
03:00+35зсз68220 0.0 99493
06:00+34сз7133610 0.0 995263
09:00+41ссз9102899 0.0 995698
12:00+44с88205 0.0 9941026
15:00+42ссв87235 0.0 993816
18:00+39с44304 0.0 993221
21:00+37ссз33303 0.0 99437
13 августа, сб
сб1300:00+35всв33361 0.0 99428
03:00+33в225569 0.0 99416
06:00+34зсз22471 0.0 99526
09:00+41в79201 0.0 9961032
12:00+42всв88155 0.0 9951074
15:00+40всв88222 0.0 994970
18:00+36в57514 0.0 995428
21:00+35ююв34495 0.0 996115
14 августа, вс
вс1400:00+33ссв115015 0.0 99611
03:00+32в33470 0.0 99641
06:00+32всв22541 0.0 99728
09:00+38в22264 0.0 998666
12:00+42юв32185 0.0 9971784
15:00+42юв641990 0.0 9961378
18:00+38вюв563082 0.0 997264
21:00+35вюв5844100 0.0 998174
15 августа, пн
пн1500:00+35ююв4655100 0.0 997120
03:00+35ю2343100 0.0 99723
06:00+35вюв1140100 0.0 99912
09:00+39зюз7925100 0.0 999574
12:00+42зюз7720100 0.0 998898
15:00+44з441697 0.0 9972553
18:00+40ссв232497 0.0 997116
21:00+37с223455 0.0 99818
16 августа, вт
вт1600:00+35з113465 0.0 99811
03:00+34ссз223360 0.0 99812
06:00+35з45257 0.0 99856
09:00+41зсз45175 0.0 999536
12:00+45ссз34135 0.0 9961838
15:00+43св65165 0.0 995785
18:00+39св34255 0.0 996115
21:00+36всв33335 0.0 99730